GW4115 Weather Reports


time (UTC)temp
C
wind
direction
speed
KPH
gust
KPH
rain 1hr
cm
rain 24hr
cm
rain mn
cm
humidity
%
barometer
mb
20260906164512 35 34 3.2 8.0 0.00 0.00 0.00 49 1016.7
20260906163030 35 91 0.0 6.4 0.00 0.00 0.00 52 1016.7
20260906161531 35 144 1.6 4.8 0.00 0.00 0.00 51 1016.8
20260906160029 34 360 3.2 6.4 0.00 0.00 0.00 52 1016.8
20260906154538 33 71 1.6 4.8 0.00 0.00 0.00 51 1016.7
20260906153022 32 41 0.0 0.0 0.00 0.00 0.00 54 1016.6
20260906151515 32 122 0.0 0.0 0.00 0.00 0.00 56 1016.5
20260906150028 32 40 0.0 0.0 0.00 0.00 0.00 57 1016.6
20260906144518 30 77 0.0 0.0 0.00 0.00 0.00 62 1016.5
20260906143032 29 64 0.0 0.0 0.00 0.00 0.00 65 1016.5
20260906141525 28 15 0.0 0.0 0.00 0.00 0.00 68 1016.5
20260906140039 27 68 0.0 3.2 0.00 0.00 0.00 74 1016.4
20260906134529 26 66 0.0 0.0 0.00 0.00 0.00 77 1016.3
20260906133020 25 191 0.0 0.0 0.00 0.00 0.00 79 1016.2
20260906131508 24 191 0.0 0.0 0.00 0.00 0.00 81 1016.1
20260906130020 23 191 0.0 0.0 0.00 0.00 0.00 84 1016.1
20260906124504 22 191 0.0 0.0 0.00 0.00 0.00 91 1015.9
20260906123010 20 191 0.0 0.0 0.00 0.00 0.00 91 1015.7
20260906121523 20 191 0.0 0.0 0.00 0.00 0.00 90 1015.5
20260906120004 20 191 0.0 0.0 0.00 0.00 0.00 90 1015.4
20260906114508 20 191 0.0 0.0 0.00 0.00 0.00 89 1015.2
20260906113011 20 191 0.0 0.0 0.00 0.00 0.00 88 1015.1
20260906111523 20 191 0.0 0.0 0.00 0.00 0.00 88 1015.0
20260906110012 20 191 0.0 0.0 0.00 0.00 0.00 88 1014.9
20260906104513 20 191 0.0 0.0 0.00 0.00 0.00 88 1014.9
20260906103012 20 191 0.0 0.0 0.00 0.00 0.00 88 1014.8
20260906101524 21 191 0.0 0.0 0.00 0.00 0.00 88 1014.8
20260906100019 21 191 0.0 0.0 0.00 0.00 0.00 87 1014.9
20260906094534 21 191 0.0 0.0 0.00 0.00 0.00 87 1014.9
20260906093012 21 191 0.0 0.0 0.00 0.00 0.00 86 1014.7
20260906091531 21 191 0.0 0.0 0.00 0.00 0.00 85 1014.7
20260906090021 21 191 0.0 0.0 0.00 0.00 0.00 84 1014.5
20260906084529 21 191 0.0 0.0 0.00 0.00 0.00 84 1014.4
20260906083025 22 191 0.0 0.0 0.00 0.00 0.00 84 1014.4
20260906081530 22 191 0.0 0.0 0.00 0.00 0.00 83 1014.4
20260906080014 22 191 0.0 0.0 0.00 0.00 0.00 82 1014.4
20260906074526 22 191 0.0 0.0 0.00 0.00 0.00 81 1014.3
20260906073033 22 191 0.0 0.0 0.00 0.00 0.00 82 1014.4
20260906071505 22 191 0.0 0.0 0.00 0.00 0.00 81 1014.5
20260906070008 22 191 0.0 0.0 0.00 0.00 0.00 81 1014.6
20260906064504 23 191 0.0 0.0 0.00 0.00 0.00 80 1014.7
20260906063003 23 191 0.0 0.0 0.00 0.00 0.00 79 1014.7
20260906061509 23 191 0.0 0.0 0.00 0.00 0.00 80 1014.6
20260906060012 23 191 0.0 0.0 0.00 0.00 0.00 79 1014.6
20260906054509 23 191 0.0 0.0 0.00 0.00 0.00 78 1014.7
20260906053008 23 191 0.0 0.0 0.00 0.00 0.00 78 1014.5
20260906051505 24 191 0.0 0.0 0.00 0.00 0.00 77 1014.5
20260906050033 24 191 0.0 0.0 0.00 0.00 0.00 75 1014.5
20260906044515 25 191 0.0 0.0 0.00 0.00 0.00 74 1014.4
20260906043016 25 191 0.0 0.0 0.00 0.00 0.00 72 1014.6
20260906041506 25 191 0.0 0.0 0.00 0.00 0.00 71 1014.6
20260906040011 25 191 0.0 0.0 0.00 0.00 0.00 70 1014.5
20260906034508 26 191 0.0 0.0 0.00 0.00 0.00 69 1014.7
20260906033025 26 191 0.0 0.0 0.00 0.00 0.00 69 1014.5
20260906031529 26 191 0.0 0.0 0.00 0.00 0.00 67 1014.4
20260906030006 27 191 0.0 0.0 0.00 0.00 0.00 66 1014.4
20260906024514 27 175 0.0 0.0 0.00 0.00 0.00 64 1014.3
20260906023013 28 175 0.0 0.0 0.00 0.00 0.00 63 1014.3
20260906021508 28 177 0.0 0.0 0.00 0.00 0.00 61 1014.2
20260906020031 29 32 0.0 0.0 0.00 0.00 0.00 58 1013.8
20260906014511 29 32 0.0 3.2 0.00 0.00 0.00 57 1013.6
20260906013015 30 5 1.6 3.2 0.00 0.00 0.00 57 1013.7
20260906011524 30 32 0.0 0.0 0.00 0.00 0.00 56 1013.5
20260906010018 31 49 0.0 3.2 0.00 0.00 0.00 53 1013.3
20260906004516 31 53 0.0 3.2 0.00 0.00 0.00 51 1013.2
20260906003009 32 22 1.6 6.4 0.00 0.00 0.00 50 1013.2
20260906001516 33 352 0.0 0.0 0.00 0.00 0.00 46 1013.1
20260906000031 35 352 0.0 0.0 0.00 0.00 0.00 43 1013.2
20260905234528 35 294 0.0 0.0 0.00 0.00 0.00 42 1013.1
20260905233027 36 294 0.0 0.0 0.00 0.00 0.00 40 1013.1
20260905231515 36 294 0.0 3.2 0.00 0.00 0.00 36 1013.2
20260905230015 37 294 0.0 3.2 0.00 0.00 0.00 36 1013.2
20260905224527 37 294 0.0 4.8 0.00 0.00 0.00 36 1013.0
20260905223035 37 13 3.2 4.8 0.00 0.00 0.00 36 1013.1
20260905221507 37 71 1.6 3.2 0.00 0.00 0.00 36 1013.2
20260905220005 37 88 0.0 3.2 0.00 0.00 0.00 37 1013.3
20260905214523 37 49 1.6 3.2 0.00 0.00 0.00 35 1013.3
20260905213008 37 107 0.0 3.2 0.00 0.00 0.00 38 1013.4
20260905211508 36 335 1.6 4.8 0.00 0.00 0.00 37 1013.6
20260905210009 36 60 0.0 8.0 0.00 0.00 0.00 37 1014.0
20260905204510 36 74 1.6 6.4 0.00 0.00 0.00 38 1014.0
20260905203004 37 27 3.2 9.7 0.00 0.00 0.00 40 1014.2
20260905201508 36 291 4.8 8.0 0.00 0.00 0.00 38 1014.4
20260905200014 36 55 1.6 12.9 0.00 0.00 0.00 40 1014.7
20260905194519 36 5 4.8 8.0 0.00 0.00 0.00 43 1014.9
20260905193026 36 142 0.0 14.5 0.00 0.00 0.00 42 1015.0
20260905191506 36 70 1.6 11.3 0.00 0.00 0.00 40 1015.2
20260905190013 36 295 3.2 17.7 0.00 0.00 0.00 43 1015.4
20260905184521 36 284 1.6 12.9 0.00 0.00 0.00 44 1015.7
20260905183028 36 321 6.4 11.3 0.00 0.00 0.00 42 1015.8
20260905181523 35 78 6.4 19.3 0.00 0.00 0.00 44 1016.1
20260905180008 36 275 1.6 8.0 0.00 0.00 0.00 43 1016.3
20260905174527 35 155 3.2 9.7 0.00 0.00 0.00 44 1016.5
20260905173009 35 360 6.4 11.3 0.00 0.00 0.00 47 1016.7
20260905171527 35 327 3.2 9.7 0.00 0.00 0.00 48 1017.0
20260905170031 35 206 1.6 6.4 0.00 0.00 0.00 48 1017.0